Notices

What's New in latest Release from April 7th, 2021:

- Updated Glossary, including Speed of Maximum Gust, and Total Hourly Precipitation

- Updated national and regional climate services offices contacts and prices information

- Addition of station inventory lists for 1981-2010, 1971-2000, and 1961-1990 Normals.

If you haven't already, please take our survey and provide feedback about our website: https://eccc.sondage-survey.ca/f/LanguageSelection.aspx?s=442ca660-fcf1-47c0-95a9-59707d6fd709

Hourly Data Report for January 03, 2021

STE-ANNE-DE-BELLEVUE 1
QUEBEC
Current Station Operator: ECCC - MSC

45°25'38.000" N
73°55'45.000" W
39.00 m
702FHL8
71377
WVQ

Download Data

Hourly Data (January 2021)
Hourly Data Report for January 3, 2021
TIME
LST
Temp Definition
°C
Dew Point Definition
°C
Rel Hum Definition
%
Precip. Amount Definition
mm

Wind Dir Definition
10's deg

Wind Spd Definition
km/h
Visibility Definition
km
Stn Press Definition
kPa
Hmdx Definition


Wind Chill Definition


Weather Definition


00:00 -2.2 -4.8 82 0.0 23 2   101.65   -3 LegendNANA
01:00 -3.0 -4.9 87 0.0 0 1   101.64   -3 LegendNANA
02:00 -3.3 -5.2 86 0.0 22 1   101.64   -4 LegendNANA
03:00 -3.0 -4.7 88 0.0 22 4   101.66   -5 LegendNANA
04:00 -2.9 -5.0 86 0.0 14 2   101.66   -4 LegendNANA
05:00 -2.6 -5.2 82 0.0 23 3   101.66   -4 LegendNANA
06:00 -3.1 -5.3 85 0.0 29 1   101.63   -4 LegendNANA
07:00 -3.1 -5.2 86 0.0 31 3   101.56   -4 LegendNANA
08:00 -3.1 -5.3 84 0.0 6 2   101.50   -4 LegendNANA
09:00 -2.0 -5.1 79 0.0 16 4   101.64   -3 LegendNANA
10:00 -1.2 -6.0 70 0.0 11 10   101.56   -5 LegendNANA
11:00 -1.2 -5.2 74 0.0 12 14   101.47   -6 LegendNANA
12:00 -0.7 -5.2 71 0.0 10 14   101.31   -5 LegendNANA
13:00 -0.7 -5.1 72 0.0 11 13   101.19   -5 LegendNANA
14:00 -0.9 -4.9 74 0.0 8 15   101.13   -6 LegendNANA
15:00 -0.9 -4.6 76 0.0 9 14   101.13   -5 LegendNANA
16:00 -1.9 -5.0 79 0.0 5 8   101.17   -5 LegendNANA
17:00 -2.5 -5.0 83 0.0 4 9   101.20   -6 LegendNANA
18:00 -3.0 -5.1 85 0.0 4 9   101.19   -7 LegendNANA
19:00 -3.1 -5.2 85 0.0 4 10   101.20   -7 LegendNANA
20:00 -3.4 -5.5 86 0.0 4 8   101.22   -7 LegendNANA
21:00 -3.6 -5.6 86 0.0 4 11   101.19   -8 LegendNANA
22:00 -3.6 -5.4 87 0.0 4 5   101.14   -6 LegendNANA
23:00 -3.6 -5.4 87 0.0 2 9   101.13   -7 LegendNANA

Notes on Data Quality.

Legend

  • E = Estimated
  • M = Missing
  • NA = Not Available*
  • [empty] = Indicates an unobserved value
Date modified: